IU7LMH-13 Weather Reports


Display with metric or nautical units.
time (UTC)temp
F
wind
direction
speed
MPH
gust
MPH
rain 1hr
in
rain 24hr
in
rain mn
in
humidity
%
barometer
mb
20260510224737 61 0 0.0 2.0 0.00 0.00 0.00 93 1012.9
20260510224544 61 338 1.0 2.0 0.00 0.00 0.00 93 1013.0
20260510224337 61 338 0.0 2.0 0.00 0.00 0.00 93 1013.3
20260510223938 61 315 0.0 0.0 0.00 0.00 0.00 93 1013.1
20260510223738 61 292 1.0 2.0 0.00 0.00 0.00 93 1012.9
20260510223337 61 315 2.0 4.0 0.00 0.00 0.00 93 1013.1
20260510223137 61 338 2.0 4.0 0.00 0.00 0.00 93 1013.1
20260510222738 60 315 1.0 2.0 0.00 0.00 0.00 93 1013.1
20260510222543 60 338 1.0 2.0 0.00 0.00 0.00 93 1013.2
20260510222339 60 22 2.0 2.0 0.00 0.00 0.00 93 1013.3
20260510222138 60 0 2.0 4.0 0.00 0.00 0.00 93 1013.3
20260510221937 60 315 1.0 4.0 0.00 0.00 0.00 93 1013.0
20260510221737 60 338 1.0 2.0 0.00 0.00 0.00 93 1013.1
20260510221544 60 315 1.0 2.0 0.00 0.00 0.00 93 1013.0
20260510221338 60 315 1.0 2.0 0.00 0.00 0.00 93 1013.1
20260510221143 60 338 1.0 2.0 0.00 0.00 0.00 93 1013.2
20260510220940 60 0 1.0 2.0 0.00 0.00 0.00 93 1013.1
20260510220737 60 315 1.0 2.0 0.00 0.00 0.00 93 1013.1
20260510220540 60 315 1.0 2.0 0.00 0.00 0.00 93 1013.2
20260510220146 60 338 2.0 4.0 0.00 0.00 0.00 93 1013.0
20260510215937 60 315 1.0 2.0 0.00 0.00 0.00 93 1013.3
20260510215544 60 292 0.0 2.0 0.00 0.00 0.00 93 1013.4
20260510215338 60 315 1.0 2.0 0.00 0.00 0.00 92 1013.2
20260510215139 60 338 0.0 0.0 0.00 0.00 0.00 92 1013.2
20260510214938 60 0 1.0 2.0 0.00 0.00 0.00 92 1013.3
20260510214338 61 315 0.0 0.0 0.00 0.00 0.00 92 1013.1
20260510214138 61 315 0.0 2.0 0.00 0.00 0.00 92 1013.1
20260510213939 61 22 0.0 2.0 0.00 0.00 0.00 92 1013.2
20260510213737 61 338 0.0 0.0 0.00 0.00 0.00 92 1013.2
20260510213336 61 22 1.0 2.0 0.00 0.00 0.00 92 1013.2
20260510213138 61 338 0.0 0.0 0.00 0.00 0.00 92 1013.2
20260510212938 61 338 2.0 2.0 0.00 0.00 0.00 92 1013.2
20260510212543 61 315 1.0 2.0 0.00 0.00 0.00 92 1013.2
20260510212138 61 338 0.0 0.0 0.00 0.00 0.00 92 1013.2
20260510211937 61 22 2.0 2.0 0.00 0.00 0.00 92 1013.1
20260510211738 61 22 1.0 2.0 0.00 0.00 0.00 92 1013.2
20260510211544 61 338 2.0 2.0 0.00 0.00 0.00 92 1013.1
20260510211338 61 315 2.0 2.0 0.00 0.00 0.00 92 1013.2
20260510211138 61 315 1.0 2.0 0.00 0.00 0.00 92 1013.3
20260510210940 61 0 1.0 2.0 0.00 0.00 0.00 92 1013.2
20260510210738 61 0 0.0 0.0 0.00 0.00 0.00 92 1013.2
20260510210540 61 338 0.0 2.0 0.00 0.00 0.00 92 1013.2
20260510210138 61 0 1.0 2.0 0.00 0.00 0.00 92 1013.2
20260510205938 61 0 1.0 4.0 0.00 0.00 0.00 92 1013.1
20260510205545 61 338 1.0 2.0 0.00 0.00 0.00 91 1013.0
20260510205342 61 0 1.0 2.0 0.00 0.00 0.00 91 1013.1
20260510205139 61 0 1.0 2.0 0.00 0.00 0.00 91 1013.3
20260510204939 61 338 1.0 2.0 0.00 0.00 0.00 91 1013.2
20260510204738 61 338 1.0 2.0 0.00 0.00 0.00 91 1013.2
20260510204543 61 22 0.0 2.0 0.00 0.00 0.00 91 1013.2
20260510204340 61 338 0.0 2.0 0.00 0.00 0.00 91 1013.3
20260510204139 61 292 0.0 2.0 0.00 0.00 0.00 91 1013.3
20260510203939 61 338 2.0 4.0 0.00 0.00 0.00 91 1013.3
20260510203738 61 338 2.0 2.0 0.00 0.00 0.00 91 1013.3
20260510203542 61 315 0.0 2.0 0.00 0.00 0.00 91 1013.2
20260510203339 61 315 1.0 2.0 0.00 0.00 0.00 91 1013.4
20260510203139 61 315 1.0 2.0 0.00 0.00 0.00 91 1013.4
20260510202939 61 315 0.0 2.0 0.00 0.00 0.00 91 1013.1
20260510202544 62 0 0.0 0.0 0.00 0.00 0.00 91 1013.3
20260510202339 62 315 0.0 0.0 0.00 0.00 0.00 91 1013.1
20260510201938 62 338 0.0 0.0 0.00 0.00 0.00 91 1013.2
20260510201739 62 22 0.0 0.0 0.00 0.00 0.00 91 1013.0
20260510201544 62 22 0.0 0.0 0.00 0.00 0.00 90 1013.2
20260510201339 62 338 0.0 0.0 0.00 0.00 0.00 90 1013.2
20260510201139 62 0 1.0 2.0 0.00 0.00 0.00 90 1013.3
20260510200738 62 22 1.0 2.0 0.00 0.00 0.00 90 1013.4
20260510200541 62 338 0.0 2.0 0.00 0.00 0.00 90 1013.3
20260510200338 62 315 0.0 0.0 0.00 0.00 0.00 90 1013.4
20260510195938 62 315 0.0 2.0 0.00 0.00 0.00 90 1013.5
20260510195339 62 315 2.0 2.0 0.00 0.00 0.00 90 1013.3
20260510195139 62 315 1.0 2.0 0.00 0.00 0.00 89 1013.2
20260510194939 62 338 0.0 0.0 0.00 0.00 0.00 89 1013.4
20260510194738 62 315 0.0 0.0 0.00 0.00 0.00 89 1013.3
20260510194544 62 315 0.0 0.0 0.00 0.00 0.00 89 1013.3
20260510194337 62 315 0.0 0.0 0.00 0.00 0.00 89 1013.3
20260510194138 62 315 0.0 0.0 0.00 0.00 0.00 89 1013.3
20260510193939 62 315 0.0 0.0 0.00 0.00 0.00 89 1013.3
20260510193738 62 315 0.0 0.0 0.00 0.00 0.00 89 1013.3
20260510193541 62 315 1.0 2.0 0.00 0.00 0.00 89 1013.3
20260510193338 62 292 2.0 2.0 0.00 0.00 0.00 89 1013.2
20260510193137 62 315 0.0 0.0 0.00 0.00 0.00 88 1013.3
20260510192738 62 315 0.0 0.0 0.00 0.00 0.00 88 1013.3
20260510192544 62 315 0.0 0.0 0.00 0.00 0.00 88 1013.3
20260510192338 62 315 0.0 0.0 0.00 0.00 0.00 88 1013.3
20260510192137 62 315 0.0 0.0 0.00 0.00 0.00 88 1013.3
20260510191938 62 315 0.0 0.0 0.00 0.00 0.00 88 1013.1
20260510191738 62 315 0.0 0.0 0.00 0.00 0.00 88 1013.2
20260510191545 62 315 0.0 0.0 0.00 0.00 0.00 88 1013.3
20260510191338 62 315 0.0 0.0 0.00 0.00 0.00 88 1013.3
20260510191138 62 292 1.0 2.0 0.00 0.00 0.00 87 1013.2
20260510190939 63 292 0.0 0.0 0.00 0.00 0.00 87 1013.3
20260510190738 63 45 1.0 2.0 0.00 0.00 0.00 87 1013.2
20260510190543 63 22 2.0 4.0 0.00 0.00 0.00 87 1013.1
20260510190137 63 0 0.0 0.0 0.00 0.00 0.00 87 1013.1
20260510185937 63 338 0.0 0.0 0.00 0.00 0.00 86 1013.2
20260510185737 63 0 0.0 2.0 0.00 0.00 0.00 86 1013.2
20260510185544 63 0 0.0 0.0 0.00 0.00 0.00 86 1013.2
20260510185337 63 315 2.0 2.0 0.00 0.00 0.00 86 1013.1
20260510185137 63 315 1.0 2.0 0.00 0.00 0.00 86 1013.3
20260510184938 63 0 1.0 2.0 0.00 0.00 0.00 86 1013.3
20260510184737 63 90 2.0 4.0 0.00 0.00 0.00 86 1013.0
20260510184552 63 22 1.0 2.0 0.00 0.00 0.00 85 1013.2
20260510184339 64 315 1.0 2.0 0.00 0.00 0.00 85 1013.3
20260510184139 64 315 1.0 2.0 0.00 0.00 0.00 85 1013.2
20260510183940 64 68 2.0 4.0 0.00 0.00 0.00 85 1013.0
20260510183741 64 45 2.0 2.0 0.00 0.00 0.00 85 1012.9
20260510183540 64 315 0.0 0.0 0.00 0.00 0.00 84 1013.1
20260510183341 64 338 0.0 0.0 0.00 0.00 0.00 84 1013.0
20260510183141 64 68 0.0 0.0 0.00 0.00 0.00 84 1013.1
20260510182938 64 68 0.0 0.0 0.00 0.00 0.00 84 1012.9
20260510182803 64 0 0.0 0.0 0.00 0.00 0.00 84 1012.9
20260510182341 64 0 0.0 0.0 0.00 0.00 0.00 84 1012.9
20260510182150 64 0 0.0 0.0 0.00 0.00 0.00 84 1012.9
20260510181737 64 22 2.0 2.0 0.00 0.00 0.00 83 1012.8
20260510181545 64 68 2.0 4.0 0.00 0.00 0.00 83 1013.1
20260510181350 64 68 0.0 0.0 0.00 0.00 0.00 83 1012.9
20260510180939 65 22 0.0 0.0 0.00 0.00 0.00 83 1013.0
20260510180737 65 45 0.0 2.0 0.00 0.00 0.00 82 1012.9
20260510180541 65 68 0.0 2.0 0.00 0.00 0.00 82 1012.9
20260510180337 65 68 0.0 2.0 0.00 0.00 0.00 82 1013.0
20260510180137 65 68 0.0 2.0 0.00 0.00 0.00 82 1012.8
20260510175938 65 135 1.0 2.0 0.00 0.00 0.00 82 1012.6
20260510175737 65 90 0.0 0.0 0.00 0.00 0.00 82 1013.0
20260510175336 65 90 2.0 2.0 0.00 0.00 0.00 82 1012.8
20260510175137 65 135 1.0 2.0 0.00 0.00 0.00 82 1012.7
20260510174937 65 135 0.0 0.0 0.00 0.00 0.00 81 1012.7
20260510174737 65 112 0.0 0.0 0.00 0.00 0.00 81 1012.6
20260510174542 65 135 0.0 0.0 0.00 0.00 0.00 81 1012.8
20260510174343 65 112 0.0 0.0 0.00 0.00 0.00 81 1012.8
20260510174137 65 135 0.0 2.0 0.00 0.00 0.00 81 1012.7
20260510173939 65 90 2.0 2.0 0.00 0.00 0.00 81 1012.8
20260510173738 65 112 2.0 4.0 0.00 0.00 0.00 81 1012.7
20260510173541 65 180 2.0 2.0 0.00 0.00 0.00 81 1012.9
20260510173336 65 180 1.0 2.0 0.00 0.00 0.00 81 1012.8
20260510173138 66 112 2.0 2.0 0.00 0.00 0.00 81 1012.6
20260510172937 66 68 2.0 4.0 0.00 0.00 0.00 80 1012.5
20260510172738 66 112 2.0 4.0 0.00 0.00 0.00 80 1012.3
20260510172543 66 112 3.0 4.0 0.00 0.00 0.00 80 1012.5
20260510172338 66 135 2.0 6.0 0.00 0.00 0.00 80 1012.5
20260510172137 66 135 2.0 4.0 0.00 0.00 0.00 80 1012.5
20260510171936 66 135 1.0 2.0 0.00 0.00 0.00 80 1012.5
20260510171738 66 112 1.0 2.0 0.00 0.00 0.00 80 1012.6
20260510171543 66 90 3.0 4.0 0.00 0.00 0.00 79 1012.7
20260510171338 66 112 2.0 4.0 0.00 0.00 0.00 79 1012.6
20260510171138 66 202 2.0 4.0 0.00 0.00 0.00 79 1012.7
20260510170937 66 135 1.0 2.0 0.00 0.00 0.00 79 1012.7
20260510170540 66 158 2.0 4.0 0.00 0.00 0.00 79 1012.5
20260510165937 67 180 3.0 4.0 0.00 0.00 0.00 78 1012.6
20260510165738 67 180 3.0 4.0 0.00 0.00 0.00 79 1012.6
20260510165543 66 158 2.0 4.0 0.00 0.00 0.00 79 1012.7
20260510165337 66 135 2.0 4.0 0.00 0.00 0.00 78 1012.8
20260510165137 66 158 4.0 7.0 0.00 0.00 0.00 78 1012.7
20260510164937 66 135 4.0 6.0 0.00 0.00 0.00 78 1012.6
20260510164736 67 158 4.0 8.0 0.00 0.00 0.00 78 1012.8
20260510164542 67 135 4.0 7.0 0.00 0.00 0.00 78 1012.7
20260510164336 67 135 3.0 6.0 0.00 0.00 0.00 77 1012.7
20260510164137 66 112 4.0 8.0 0.00 0.00 0.00 78 1012.7
20260510163940 67 90 2.0 4.0 0.00 0.00 0.00 78 1012.7
20260510163736 67 112 4.0 9.0 0.00 0.00 0.00 78 1012.9
20260510163540 67 112 4.0 6.0 0.00 0.00 0.00 78 1012.9
20260510163338 67 135 2.0 4.0 0.00 0.00 0.00 78 1012.8
20260510163137 67 202 2.0 4.0 0.00 0.00 0.00 78 1012.8
20260510162936 67 158 4.0 4.0 0.00 0.00 0.00 78 1012.9
20260510162737 67 112 3.0 6.0 0.00 0.00 0.00 77 1012.7
20260510162544 67 90 4.0 7.0 0.00 0.00 0.00 77 1012.9
20260510162336 67 135 2.0 4.0 0.00 0.00 0.00 77 1012.9
20260510162137 67 112 4.0 8.0 0.00 0.00 0.00 77 1013.0
20260510161938 67 90 6.0 9.0 0.00 0.00 0.00 76 1013.0
20260510161737 67 158 4.0 7.0 0.00 0.00 0.00 76 1012.9
20260510161543 67 135 2.0 4.0 0.00 0.00 0.00 76 1013.0
20260510161336 67 112 5.0 7.0 0.00 0.00 0.00 77 1013.0
20260510161137 67 112 3.0 6.0 0.00 0.00 0.00 76 1013.0
20260510160939 67 112 5.0 8.0 0.00 0.00 0.00 76 1012.8
20260510160738 68 112 6.0 8.0 0.00 0.00 0.00 75 1013.0
20260510160541 68 135 5.0 8.0 0.00 0.00 0.00 74 1013.1
20260510155938 68 112 4.0 7.0 0.00 0.00 0.00 73 1013.1
20260510155546 68 112 6.0 8.0 0.00 0.00 0.00 73 1013.2
20260510155138 68 158 3.0 4.0 0.00 0.00 0.00 72 1013.2
20260510154938 68 180 4.0 8.0 0.00 0.00 0.00 73 1013.2
20260510154738 68 112 4.0 8.0 0.00 0.00 0.00 72 1013.2
20260510154543 69 135 6.0 11.0 0.00 0.00 0.00 72 1013.3
20260510154339 69 135 5.0 8.0 0.00 0.00 0.00 71 1013.3
20260510154138 69 225 5.0 8.0 0.00 0.00 0.00 70 1013.1
20260510153940 69 112 5.0 11.0 0.00 0.00 0.00 70 1013.1
20260510153738 69 90 6.0 9.0 0.00 0.00 0.00 70 1013.1
20260510153543 69 135 8.0 13.0 0.00 0.00 0.00 69 1013.5
20260510153339 69 270 6.0 11.0 0.00 0.00 0.00 68 1013.3
20260510153138 69 202 6.0 9.0 0.00 0.00 0.00 67 1013.3
20260510152938 69 112 7.0 11.0 0.00 0.00 0.00 68 1013.1
20260510152738 69 135 6.0 9.0 0.00 0.00 0.00 67 1013.4
20260510152545 69 135 4.0 8.0 0.00 0.00 0.00 66 1013.4
20260510152337 69 158 4.0 6.0 0.00 0.00 0.00 69 1013.5
20260510152137 69 135 8.0 14.0 0.00 0.00 0.00 69 1013.5
20260510151938 69 158 3.0 7.0 0.00 0.00 0.00 69 1013.4
20260510151737 70 158 6.0 9.0 0.00 0.00 0.00 69 1013.3
20260510151545 69 90 6.0 11.0 0.00 0.00 0.00 69 1013.2
20260510151338 69 180 5.0 8.0 0.00 0.00 0.00 66 1013.6
20260510151138 69 158 8.0 11.0 0.00 0.00 0.00 66 1013.5
20260510150940 69 135 8.0 11.0 0.00 0.00 0.00 66 1013.5
20260510150540 70 90 8.0 11.0 0.00 0.00 0.00 66 1013.6
20260510150336 70 135 5.0 9.0 0.00 0.00 0.00 67 1013.4
20260510150138 70 180 8.0 11.0 0.00 0.00 0.00 68 1013.5
20260510145938 70 158 8.0 11.0 0.00 0.00 0.00 69 1013.3
20260510145545 70 180 8.0 11.0 0.00 0.00 0.00 69 1013.4
20260510145338 70 202 5.0 9.0 0.00 0.00 0.00 70 1013.5
20260510145139 69 158 5.0 7.0 0.00 0.00 0.00 71 1013.6
20260510144548 69 135 6.0 11.0 0.00 0.00 0.00 69 1013.7
20260510144338 69 338 5.0 9.0 0.00 0.00 0.00 71 1013.6
20260510144137 69 112 8.0 11.0 0.00 0.00 0.00 70 1013.5
20260510143939 70 225 5.0 9.0 0.00 0.00 0.00 70 1013.6
20260510143738 69 202 6.0 8.0 0.00 0.00 0.00 72 1013.5
20260510143542 69 202 6.0 11.0 0.00 0.00 0.00 71 1013.5
20260510143339 69 158 7.0 11.0 0.00 0.00 0.00 72 1013.4
20260510142937 69 158 6.0 8.0 0.00 0.00 0.00 72 1013.5
20260510142739 69 158 5.0 11.0 0.00 0.00 0.00 71 1013.5
20260510142544 70 112 7.0 11.0 0.00 0.00 0.00 72 1013.5
20260510142338 69 135 6.0 8.0 0.00 0.00 0.00 72 1013.8
20260510142138 70 202 8.0 13.0 0.00 0.00 0.00 71 1013.7
20260510141939 70 158 7.0 11.0 0.00 0.00 0.00 71 1013.6
20260510141738 70 112 7.0 11.0 0.00 0.00 0.00 72 1013.7
20260510141546 70 180 6.0 11.0 0.00 0.00 0.00 71 1013.7
20260510141137 70 135 5.0 8.0 0.00 0.00 0.00 73 1013.8
20260510140940 70 112 6.0 8.0 0.00 0.00 0.00 73 1013.6
20260510140738 70 202 5.0 8.0 0.00 0.00 0.00 73 1013.5
20260510140541 70 158 6.0 8.0 0.00 0.00 0.00 72 1013.5
20260510140339 70 270 6.0 9.0 0.00 0.00 0.00 72 1013.8
20260510140140 70 90 7.0 9.0 0.00 0.00 0.00 72 1013.9
20260510135939 70 90 5.0 9.0 0.00 0.00 0.00 72 1013.7
20260510135739 70 112 8.0 11.0 0.00 0.00 0.00 72 1013.9
20260510135545 69 158 6.0 11.0 0.00 0.00 0.00 72 1013.8
20260510135138 70 180 8.0 14.0 0.00 0.00 0.00 70 1013.8
20260510134939 70 158 5.0 8.0 0.00 0.00 0.00 72 1013.8
20260510134739 70 112 6.0 13.0 0.00 0.00 0.00 71 1013.9
20260510134545 69 112 6.0 9.0 0.00 0.00 0.00 72 1013.8
20260510134339 69 202 8.0 11.0 0.00 0.00 0.00 71 1013.7
20260510134140 69 135 5.0 8.0 0.00 0.00 0.00 72 1013.9
20260510133940 69 112 8.0 13.0 0.00 0.00 0.00 71 1013.8
20260510133739 70 90 7.0 11.0 0.00 0.00 0.00 71 1013.7
20260510133541 70 112 7.0 14.0 0.00 0.00 0.00 70 1013.8
20260510133337 70 112 6.0 8.0 0.00 0.00 0.00 69 1013.8
20260510133139 70 158 8.0 14.0 0.00 0.00 0.00 69 1014.0
20260510132938 70 112 7.0 11.0 0.00 0.00 0.00 70 1013.9
20260510132739 71 135 8.0 13.0 0.00 0.00 0.00 69 1014.0
20260510132545 71 180 5.0 9.0 0.00 0.00 0.00 68 1013.9
20260510132339 71 158 8.0 13.0 0.00 0.00 0.00 68 1013.8
20260510132140 71 158 8.0 14.0 0.00 0.00 0.00 67 1013.9
20260510131939 71 112 5.0 7.0 0.00 0.00 0.00 67 1014.2
20260510131547 71 180 7.0 11.0 0.00 0.00 0.00 67 1013.8
20260510131139 72 180 5.0 11.0 0.00 0.00 0.00 67 1013.9
20260510130739 72 202 6.0 9.0 0.00 0.00 0.00 65 1014.3
20260510130543 72 90 7.0 11.0 0.00 0.00 0.00 64 1014.1
20260510130339 72 180 4.0 6.0 0.00 0.00 0.00 65 1014.2
20260510130139 72 225 3.0 6.0 0.00 0.00 0.00 65 1014.1
20260510125739 71 158 6.0 11.0 0.00 0.00 0.00 68 1014.0
20260510125547 71 112 6.0 9.0 0.00 0.00 0.00 65 1014.1
20260510125337 71 90 8.0 11.0 0.00 0.00 0.00 67 1014.2
20260510125137 71 158 8.0 13.0 0.00 0.00 0.00 68 1014.1
20260510124937 71 180 8.0 13.0 0.00 0.00 0.00 68 1014.0
20260510124737 71 135 8.0 11.0 0.00 0.00 0.00 67 1014.2
20260510124543 72 112 5.0 8.0 0.00 0.00 0.00 67 1014.3
20260510124337 71 158 5.0 8.0 0.00 0.00 0.00 68 1014.1
20260510124138 71 135 4.0 7.0 0.00 0.00 0.00 68 1014.1
20260510123540 71 180 4.0 8.0 0.00 0.00 0.00 69 1014.1
20260510123337 71 202 4.0 8.0 0.00 0.00 0.00 72 1014.1
20260510123137 71 112 6.0 11.0 0.00 0.00 0.00 72 1014.1
20260510122937 71 135 6.0 9.0 0.00 0.00 0.00 72 1014.2
20260510122737 72 112 4.0 11.0 0.00 0.00 0.00 70 1014.1
20260510122544 72 135 7.0 9.0 0.00 0.00 0.00 69 1014.2
20260510122338 71 68 5.0 9.0 0.00 0.00 0.00 70 1014.3
20260510122137 71 158 4.0 6.0 0.00 0.00 0.00 69 1014.3
20260510121738 72 158 4.0 7.0 0.00 0.00 0.00 69 1014.4
20260510121544 72 68 4.0 7.0 0.00 0.00 0.00 67 1014.3
20260510121337 72 90 5.0 8.0 0.00 0.00 0.00 68 1014.3
20260510121138 72 112 4.0 8.0 0.00 0.00 0.00 66 1014.1
20260510120939 72 135 4.0 6.0 0.00 0.00 0.00 68 1014.1
20260510120738 72 112 4.0 8.0 0.00 0.00 0.00 68 1014.1
20260510120540 72 158 7.0 11.0 0.00 0.00 0.00 67 1014.2
20260510120337 72 158 7.0 11.0 0.00 0.00 0.00 67 1014.3
20260510120138 72 158 7.0 11.0 0.00 0.00 0.00 67 1014.3
20260510115937 71 90 6.0 11.0 0.00 0.00 0.00 67 1014.3
20260510115739 71 90 6.0 8.0 0.00 0.00 0.00 66 1014.5
20260510115544 72 112 7.0 9.0 0.00 0.00 0.00 63 1014.3
20260510115338 72 22 4.0 7.0 0.00 0.00 0.00 63 1014.5
20260510115136 72 112 7.0 9.0 0.00 0.00 0.00 63 1014.3
20260510114937 72 158 4.0 8.0 0.00 0.00 0.00 62 1014.5
20260510114738 72 135 7.0 11.0 0.00 0.00 0.00 62 1014.5
20260510114544 72 112 8.0 11.0 0.00 0.00 0.00 62 1014.5
20260510114338 73 180 7.0 9.0 0.00 0.00 0.00 62 1014.3
20260510114138 72 135 4.0 6.0 0.00 0.00 0.00 60 1014.4
20260510113939 72 135 6.0 9.0 0.00 0.00 0.00 60 1014.2
20260510113737 73 112 5.0 9.0 0.00 0.00 0.00 62 1014.5
20260510113542 71 158 4.0 6.0 0.00 0.00 0.00 63 1014.5
20260510113339 71 248 4.0 6.0 0.00 0.00 0.00 64 1014.5
20260510113138 71 112 5.0 11.0 0.00 0.00 0.00 62 1014.5
20260510112738 72 112 4.0 7.0 0.00 0.00 0.00 61 1014.5
20260510112544 72 180 4.0 7.0 0.00 0.00 0.00 63 1014.7
20260510111938 71 112 4.0 7.0 0.00 0.00 0.00 65 1014.5
20260510111737 72 112 4.0 8.0 0.00 0.00 0.00 65 1014.5
20260510111544 73 90 5.0 9.0 0.00 0.00 0.00 64 1014.5
20260510111339 72 90 4.0 6.0 0.00 0.00 0.00 64 1014.5
20260510111137 72 135 4.0 7.0 0.00 0.00 0.00 64 1014.6
20260510110938 72 90 5.0 9.0 0.00 0.00 0.00 65 1014.6
20260510110737 71 90 7.0 11.0 0.00 0.00 0.00 64 1014.5
20260510110541 71 112 7.0 9.0 0.00 0.00 0.00 62 1014.8
20260510110338 71 135 4.0 6.0 0.00 0.00 0.00 67 1014.7
20260510110137 71 90 6.0 8.0 0.00 0.00 0.00 67 1014.6
20260510105738 73 90 6.0 8.0 0.00 0.00 0.00 63 1014.6
20260510105544 71 112 3.0 6.0 0.00 0.00 0.00 67 1014.7
20260510105337 71 112 7.0 11.0 0.00 0.00 0.00 68 1014.7
20260510105138 71 112 4.0 8.0 0.00 0.00 0.00 66 1014.8
20260510104938 71 90 4.0 7.0 0.00 0.00 0.00 67 1014.7
20260510104338 72 112 3.0 6.0 0.00 0.00 0.00 67 1014.7
20260510104137 72 112 6.0 8.0 0.00 0.00 0.00 65 1014.7
20260510103939 72 135 4.0 6.0 0.00 0.00 0.00 67 1014.9
20260510103737 72 135 4.0 7.0 0.00 0.00 0.00 67 1014.8
20260510103541 72 202 5.0 7.0 0.00 0.00 0.00 67 1014.6
20260510103338 72 135 2.0 4.0 0.00 0.00 0.00 68 1014.8
20260510103138 72 112 4.0 8.0 0.00 0.00 0.00 67 1014.7
20260510102937 72 202 2.0 6.0 0.00 0.00 0.00 67 1014.7
20260510102737 71 90 4.0 6.0 0.00 0.00 0.00 65 1014.7
20260510102544 71 68 4.0 8.0 0.00 0.00 0.00 66 1014.8
20260510102337 71 22 5.0 8.0 0.00 0.00 0.00 65 1014.8
20260510102138 71 90 4.0 7.0 0.00 0.00 0.00 67 1014.7
20260510101738 70 180 6.0 11.0 0.00 0.00 0.00 68 1014.7
20260510101544 71 112 6.0 8.0 0.00 0.00 0.00 68 1014.8
20260510101338 71 135 8.0 11.0 0.00 0.00 0.00 67 1014.7
20260510101138 71 112 6.0 8.0 0.00 0.00 0.00 67 1014.7
20260510100938 71 158 5.0 13.0 0.00 0.00 0.00 67 1014.7
20260510100736 71 45 5.0 8.0 0.00 0.00 0.00 66 1014.6
20260510100338 71 90 5.0 9.0 0.00 0.00 0.00 65 1014.7
20260510100136 71 90 3.0 6.0 0.00 0.00 0.00 66 1014.7
20260510095938 71 112 5.0 11.0 0.00 0.00 0.00 64 1014.8
20260510095738 71 135 3.0 6.0 0.00 0.00 0.00 66 1014.8
20260510095544 71 90 3.0 6.0 0.00 0.00 0.00 68 1014.7
20260510095337 71 112 3.0 4.0 0.00 0.00 0.00 68 1014.9
20260510095139 71 158 5.0 8.0 0.00 0.00 0.00 69 1014.9
20260510094738 71 90 4.0 7.0 0.00 0.00 0.00 68 1015.0
20260510094543 71 90 5.0 7.0 0.00 0.00 0.00 67 1014.9
20260510094337 71 45 4.0 9.0 0.00 0.00 0.00 68 1015.0
20260510094138 71 135 4.0 4.0 0.00 0.00 0.00 69 1015.0
20260510093738 71 90 5.0 9.0 0.00 0.00 0.00 69 1015.0
20260510093540 71 90 5.0 8.0 0.00 0.00 0.00 67 1015.0
20260510093337 71 135 4.0 6.0 0.00 0.00 0.00 69 1015.1
20260510093138 71 90 3.0 4.0 0.00 0.00 0.00 69 1015.0
20260510092937 71 68 3.0 6.0 0.00 0.00 0.00 70 1015.0
20260510092738 71 90 5.0 8.0 0.00 0.00 0.00 70 1015.3
20260510092544 71 68 2.0 4.0 0.00 0.00 0.00 69 1015.3
20260510092137 70 135 2.0 4.0 0.00 0.00 0.00 70 1015.2
20260510091940 70 90 4.0 7.0 0.00 0.00 0.00 70 1015.1
20260510091737 69 202 2.0 4.0 0.00 0.00 0.00 74 1015.3
20260510091545 69 45 2.0 6.0 0.00 0.00 0.00 75 1015.5
20260510091338 69 90 4.0 7.0 0.00 0.00 0.00 74 1015.3
20260510091137 69 68 4.0 6.0 0.00 0.00 0.00 73 1015.4
20260510090939 69 112 6.0 8.0 0.00 0.00 0.00 74 1015.2
20260510090736 69 112 4.0 7.0 0.00 0.00 0.00 75 1015.3
20260510090542 69 112 6.0 11.0 0.00 0.00 0.00 73 1015.3
20260510090338 70 112 4.0 7.0 0.00 0.00 0.00 71 1015.2
20260510090138 70 135 5.0 7.0 0.00 0.00 0.00 72 1015.4
20260510085939 69 45 5.0 7.0 0.00 0.00 0.00 73 1015.2
20260510085738 69 68 2.0 4.0 0.00 0.00 0.00 73 1015.4
20260510085545 69 135 4.0 7.0 0.00 0.00 0.00 75 1015.5
20260510085338 69 68 4.0 6.0 0.00 0.00 0.00 75 1015.4
20260510085137 69 90 4.0 7.0 0.00 0.00 0.00 75 1015.5
20260510084938 69 90 3.0 4.0 0.00 0.00 0.00 76 1015.5
20260510084544 68 90 5.0 9.0 0.00 0.00 0.00 77 1015.4
20260510084338 69 90 3.0 4.0 0.00 0.00 0.00 76 1015.5
20260510083938 68 135 3.0 6.0 0.00 0.00 0.00 76 1015.7
20260510083738 68 112 5.0 9.0 0.00 0.00 0.00 77 1015.7
20260510083542 68 45 4.0 6.0 0.00 0.00 0.00 77 1015.7
20260510083339 68 68 4.0 4.0 0.00 0.00 0.00 77 1015.5
20260510083138 68 45 4.0 7.0 0.00 0.00 0.00 78 1015.6
20260510082938 68 45 3.0 6.0 0.00 0.00 0.00 78 1015.6
20260510082739 67 90 4.0 6.0 0.00 0.00 0.00 79 1015.7
20260510082545 67 112 4.0 7.0 0.00 0.00 0.00 78 1015.7
20260510082338 68 68 3.0 6.0 0.00 0.00 0.00 78 1015.8
20260510082137 68 90 4.0 7.0 0.00 0.00 0.00 77 1015.7
20260510081938 68 68 5.0 8.0 0.00 0.00 0.00 78 1015.5
20260510081738 68 90 4.0 4.0 0.00 0.00 0.00 77 1015.7
20260510081543 67 112 5.0 7.0 0.00 0.00 0.00 78 1015.8
20260510081339 67 90 3.0 4.0 0.00 0.00 0.00 79 1015.6
20260510081137 67 90 4.0 7.0 0.00 0.00 0.00 78 1015.6
20260510080938 67 135 4.0 6.0 0.00 0.00 0.00 78 1015.5
20260510080738 68 112 4.0 7.0 0.00 0.00 0.00 77 1015.5
20260510080549 67 45 3.0 4.0 0.00 0.00 0.00 78 1015.4
20260510080337 67 90 4.0 6.0 0.00 0.00 0.00 78 1015.1
20260510080136 67 90 4.0 6.0 0.00 0.00 0.00 79 1015.5
20260510075937 67 68 4.0 4.0 0.00 0.00 0.00 79 1015.4
20260510075736 67 22 2.0 4.0 0.00 0.00 0.00 79 1015.7
20260510075543 67 68 3.0 6.0 0.00 0.00 0.00 78 1015.6
20260510075337 67 68 2.0 4.0 0.00 0.00 0.00 78 1015.8
20260510075138 67 68 2.0 4.0 0.00 0.00 0.00 78 1015.6
20260510074938 67 112 4.0 7.0 0.00 0.00 0.00 77 1015.6
20260510074737 67 112 4.0 4.0 0.00 0.00 0.00 77 1015.9
20260510074543 67 90 4.0 8.0 0.00 0.00 0.00 77 1015.7
20260510074138 68 68 4.0 6.0 0.00 0.00 0.00 75 1015.7
20260510073943 67 112 2.0 4.0 0.00 0.00 0.00 76 1015.8
20260510073541 67 90 3.0 4.0 0.00 0.00 0.00 78 1016.0
20260510073338 67 90 2.0 4.0 0.00 0.00 0.00 79 1015.8
20260510073146 67 22 2.0 4.0 0.00 0.00 0.00 79 1015.9
20260510072544 66 68 2.0 4.0 0.00 0.00 0.00 79 1015.7
20260510072138 66 90 1.0 2.0 0.00 0.00 0.00 80 1015.8
20260510071938 66 68 0.0 2.0 0.00 0.00 0.00 81 1015.6
20260510071738 66 68 2.0 4.0 0.00 0.00 0.00 81 1015.5
20260510071546 66 338 1.0 2.0 0.00 0.00 0.00 81 1015.5
20260510071338 66 0 2.0 6.0 0.00 0.00 0.00 81 1015.5
20260510071138 65 68 1.0 4.0 0.00 0.00 0.00 82 1015.5
20260510070737 65 45 5.0 8.0 0.00 0.00 0.00 82 1015.5
20260510070542 65 68 3.0 6.0 0.00 0.00 0.00 82 1015.6
20260510070339 65 45 4.0 6.0 0.00 0.00 0.00 83 1015.5
20260510065336 65 22 3.0 4.0 0.00 0.00 0.00 84 1015.6
20260510065138 64 22 4.0 6.0 0.00 0.00 0.00 84 1015.5
20260510064939 64 22 3.0 6.0 0.00 0.00 0.00 84 1015.6
20260510064739 65 68 4.0 8.0 0.00 0.00 0.00 84 1015.5
20260510064544 65 22 4.0 8.0 0.00 0.00 0.00 84 1015.5
20260510064337 64 22 3.0 6.0 0.00 0.00 0.00 84 1015.6
20260510064139 64 0 3.0 4.0 0.00 0.00 0.00 84 1015.6
20260510063739 64 68 2.0 4.0 0.00 0.00 0.00 85 1015.6
20260510063542 64 0 4.0 6.0 0.00 0.00 0.00 86 1015.7
20260510063338 64 22 3.0 8.0 0.00 0.00 0.00 86 1015.6
20260510062737 63 315 2.0 2.0 0.00 0.00 0.00 88 1015.8
20260510062544 63 22 2.0 4.0 0.00 0.00 0.00 88 1015.9
20260510062138 62 22 1.0 2.0 0.00 0.00 0.00 89 1015.7
20260510061938 62 45 2.0 4.0 0.00 0.00 0.00 89 1015.7
20260510061737 62 22 2.0 4.0 0.00 0.00 0.00 89 1015.7
20260510061544 62 22 2.0 4.0 0.00 0.00 0.00 89 1015.8
20260510061338 62 22 2.0 4.0 0.00 0.00 0.00 89 1015.6
20260510061138 62 68 2.0 4.0 0.00 0.00 0.00 89 1015.7
20260510060936 62 22 2.0 4.0 0.00 0.00 0.00 89 1015.7
20260510060544 62 315 0.0 2.0 0.00 0.00 0.00 90 1015.7
20260510060338 62 315 0.0 2.0 0.00 0.00 0.00 90 1015.6
20260510060137 62 315 0.0 2.0 0.00 0.00 0.00 90 1016.0
20260510055938 62 338 0.0 2.0 0.00 0.00 0.00 90 1016.0
20260510055738 62 315 0.0 0.0 0.00 0.00 0.00 90 1015.7
20260510055544 61 315 0.0 0.0 0.00 0.00 0.00 90 1015.9
20260510055338 61 315 0.0 0.0 0.00 0.00 0.00 90 1016.0
20260510055137 61 315 0.0 0.0 0.00 0.00 0.00 90 1015.9
20260510054938 61 315 0.0 0.0 0.00 0.00 0.00 90 1016.0
20260510054738 61 315 0.0 0.0 0.00 0.00 0.00 90 1016.0
20260510054546 61 45 0.0 0.0 0.00 0.00 0.00 90 1015.8
20260510054159 61 112 0.0 2.0 0.00 0.00 0.00 90 1015.7
20260510053937 60 90 1.0 2.0 0.00 0.00 0.00 90 1015.6
20260510053340 60 22 0.0 2.0 0.00 0.00 0.00 90 1015.7
20260510053137 60 22 1.0 2.0 0.00 0.00 0.00 90 1015.6
20260510052939 60 0 0.0 0.0 0.00 0.00 0.00 90 1015.5
20260510052738 60 315 2.0 2.0 0.00 0.00 0.00 89 1015.5
20260510052546 60 338 1.0 2.0 0.00 0.00 0.00 89 1015.4
20260510052338 60 0 0.0 2.0 0.00 0.00 0.00 89 1015.4
20260510052138 60 45 2.0 4.0 0.00 0.00 0.00 89 1015.0
20260510051938 60 22 3.0 4.0 0.00 0.00 0.00 89 1015.2
20260510051738 60 0 3.0 4.0 0.00 0.00 0.00 89 1015.2
20260510051546 60 45 2.0 4.0 0.00 0.00 0.00 89 1015.2
20260510051337 60 315 2.0 4.0 0.00 0.00 0.00 89 1015.4
20260510051140 60 338 4.0 7.0 0.00 0.00 0.00 89 1015.5
20260510050937 60 338 2.0 4.0 0.00 0.00 0.00 89 1015.5
20260510050738 60 315 4.0 7.0 0.00 0.00 0.00 89 1015.2
20260510050542 60 0 4.0 6.0 0.00 0.00 0.00 89 1014.9
20260510050338 60 0 2.0 6.0 0.00 0.00 0.00 88 1014.5
20260510050139 60 22 2.0 6.0 0.00 0.00 0.00 88 1014.4
20260510045938 60 45 2.0 4.0 0.00 0.00 0.00 88 1014.7
20260510045545 60 0 2.0 4.0 0.00 0.00 0.00 88 1014.7
20260510045339 60 0 2.0 4.0 0.00 0.00 0.00 88 1014.9
20260510045139 60 22 2.0 4.0 0.00 0.00 0.00 88 1015.2
20260510044938 60 22 1.0 4.0 0.00 0.00 0.00 88 1015.2
20260510044740 60 22 1.0 2.0 0.00 0.00 0.00 88 1015.0
20260510044600 60 22 2.0 4.0 0.00 0.00 0.00 88 1014.9
20260510043938 60 68 3.0 4.0 0.00 0.00 0.00 88 1015.1
20260510043738 60 90 2.0 2.0 0.00 0.00 0.00 88 1015.2
20260510043543 60 90 2.0 4.0 0.00 0.00 0.00 87 1015.3
20260510043338 60 68 1.0 2.0 0.00 0.00 0.00 87 1015.2
20260510043139 60 45 3.0 4.0 0.00 0.00 0.00 87 1015.6
20260510042938 60 45 2.0 4.0 0.00 0.00 0.00 87 1015.4
20260510042740 60 68 4.0 6.0 0.00 0.00 0.00 87 1015.5
20260510042547 60 68 3.0 4.0 0.00 0.00 0.00 86 1015.7
20260510042139 60 22 0.0 2.0 0.00 0.00 0.00 86 1015.8
20260510041940 60 112 0.0 0.0 0.00 0.00 0.00 86 1015.8
20260510041739 60 112 2.0 2.0 0.00 0.00 0.00 86 1015.7
20260510041339 60 90 1.0 2.0 0.00 0.00 0.00 85 1015.8
20260510041138 60 0 0.0 2.0 0.00 0.00 0.00 85 1015.9
20260510040938 60 315 0.0 2.0 0.00 0.00 0.00 85 1016.0
20260510040739 61 90 1.0 2.0 0.00 0.00 0.00 85 1016.1
20260510040542 60 68 2.0 2.0 0.00 0.00 0.00 85 1016.1
20260510035938 61 45 1.0 2.0 0.00 0.00 0.00 84 1016.3
20260510035737 61 22 0.0 0.0 0.00 0.00 0.00 84 1016.2
20260510035546 61 292 0.0 2.0 0.00 0.00 0.00 84 1016.4
20260510035338 61 292 0.0 0.0 0.00 0.00 0.00 84 1016.2
20260510035138 61 112 1.0 2.0 0.00 0.00 0.00 84 1016.4
20260510034937 61 112 2.0 2.0 0.00 0.00 0.00 84 1016.3
20260510034737 60 22 0.0 2.0 0.00 0.00 0.00 84 1016.3
20260510034545 60 270 0.0 0.0 0.00 0.00 0.00 84 1016.6
20260510034338 61 248 0.0 0.0 0.00 0.00 0.00 83 1016.4
20260510034137 60 248 0.0 0.0 0.00 0.00 0.00 84 1016.6
20260510033939 60 248 0.0 0.0 0.00 0.00 0.00 83 1016.5
20260510033738 60 248 0.0 0.0 0.00 0.00 0.00 83 1016.5
20260510033342 60 248 0.0 0.0 0.00 0.00 0.00 83 1016.7
20260510033139 60 270 1.0 2.0 0.00 0.00 0.00 83 1016.6
20260510032939 60 270 0.0 0.0 0.00 0.00 0.00 83 1016.5
20260510032738 60 270 0.0 0.0 0.00 0.00 0.00 83 1016.4
20260510032337 60 270 2.0 2.0 0.00 0.00 0.00 84 1016.7
20260510032138 60 270 1.0 2.0 0.00 0.00 0.00 84 1016.6
20260510031937 60 248 1.0 2.0 0.00 0.00 0.00 84 1016.8
20260510031738 60 248 2.0 2.0 0.00 0.00 0.00 84 1016.9
20260510031545 60 270 2.0 2.0 0.00 0.00 0.00 84 1016.6
20260510031337 60 270 1.0 2.0 0.00 0.00 0.00 85 1016.8
20260510031139 60 270 2.0 4.0 0.00 0.00 0.00 85 1016.8
20260510030939 60 270 2.0 4.0 0.00 0.00 0.00 85 1016.9
20260510030737 59 270 3.0 4.0 0.00 0.00 0.00 86 1016.9
20260510030546 59 270 3.0 4.0 0.00 0.00 0.00 87 1016.9
20260510030338 59 248 3.0 4.0 0.00 0.00 0.00 88 1016.8
20260510030138 59 270 3.0 6.0 0.00 0.00 0.00 89 1016.9
20260510025938 59 270 4.0 6.0 0.00 0.00 0.00 90 1016.7
20260510025738 59 270 4.0 7.0 0.00 0.00 0.00 90 1016.7
20260510025544 59 270 3.0 4.0 0.00 0.00 0.00 90 1016.8
20260510025338 59 270 2.0 4.0 0.00 0.00 0.00 91 1016.7
20260510025138 59 270 1.0 2.0 0.00 0.00 0.00 91 1016.6
20260510024738 59 270 2.0 2.0 0.00 0.00 0.00 91 1016.7
20260510024544 59 248 3.0 4.0 0.00 0.00 0.00 91 1016.9
20260510024339 59 292 2.0 4.0 0.00 0.00 0.00 91 1016.8
20260510024138 59 292 3.0 4.0 0.00 0.00 0.00 91 1016.8
20260510023938 59 270 3.0 4.0 0.00 0.00 0.00 91 1016.9
20260510023739 59 270 3.0 4.0 0.00 0.00 0.00 91 1016.9
20260510023541 59 292 2.0 4.0 0.00 0.00 0.00 91 1016.9
20260510023337 59 292 4.0 7.0 0.00 0.00 0.00 92 1016.8
20260510023136 59 248 4.0 4.0 0.00 0.00 0.00 91 1016.6
20260510022937 59 202 2.0 2.0 0.00 0.00 0.00 92 1016.7
20260510022739 59 225 3.0 4.0 0.00 0.00 0.00 92 1016.4
20260510022544 59 202 3.0 4.0 0.00 0.00 0.00 92 1016.3
20260510022339 59 248 1.0 2.0 0.00 0.00 0.00 92 1016.4
20260510021738 58 270 2.0 2.0 0.00 0.00 0.00 92 1016.2
20260510021545 58 270 1.0 2.0 0.00 0.00 0.00 92 1016.1
20260510021338 58 270 1.0 2.0 0.00 0.00 0.00 92 1015.9
20260510020736 58 315 2.0 4.0 0.00 0.00 0.00 92 1015.7
20260510020541 58 315 1.0 2.0 0.00 0.00 0.00 92 1015.5
20260510020339 58 338 1.0 2.0 0.00 0.00 0.00 92 1015.4
20260510020137 58 0 1.0 2.0 0.00 0.00 0.00 92 1015.3
20260510015939 58 45 2.0 2.0 0.00 0.00 0.00 92 1015.3
20260510015544 58 315 0.0 2.0 0.00 0.00 0.00 92 1015.8
20260510015337 58 315 0.0 2.0 0.00 0.00 0.00 92 1015.9
20260510014938 58 315 2.0 4.0 0.00 0.00 0.00 92 1016.1
20260510014738 58 292 2.0 4.0 0.00 0.00 0.00 92 1016.2
20260510014547 58 292 2.0 2.0 0.00 0.00 0.00 92 1016.1
20260510014337 58 292 2.0 4.0 0.00 0.00 0.00 92 1016.2
20260510014138 58 315 2.0 4.0 0.00 0.00 0.00 92 1016.1
20260510013938 58 292 2.0 4.0 0.00 0.00 0.00 92 1016.2
20260510013738 58 315 2.0 4.0 0.00 0.00 0.00 92 1016.2
20260510013542 58 292 2.0 2.0 0.00 0.00 0.00 92 1016.0
20260510013337 58 315 2.0 4.0 0.00 0.00 0.00 92 1016.0
20260510013137 58 292 3.0 4.0 0.00 0.00 0.00 92 1016.1
20260510012940 58 315 2.0 4.0 0.00 0.00 0.00 92 1016.1
20260510012737 58 292 1.0 2.0 0.00 0.00 0.00 92 1015.9
20260510012545 58 315 1.0 2.0 0.00 0.00 0.00 92 1015.9
20260510012338 58 292 2.0 2.0 0.00 0.00 0.00 92 1016.0
20260510012139 58 292 2.0 2.0 0.00 0.00 0.00 92 1015.9
20260510011938 58 292 2.0 2.0 0.00 0.00 0.00 92 1016.0
20260510011738 58 292 2.0 4.0 0.00 0.00 0.00 92 1016.1
20260510011546 58 292 2.0 4.0 0.00 0.00 0.00 92 1016.1
20260510011340 58 292 2.0 4.0 0.00 0.00 0.00 92 1016.1
20260510011139 58 292 2.0 2.0 0.00 0.00 0.00 92 1015.8
20260510010939 58 292 2.0 2.0 0.00 0.00 0.00 92 1016.1
20260510010738 58 292 2.0 2.0 0.00 0.00 0.00 92 1016.0
20260510010541 58 292 1.0 2.0 0.00 0.00 0.00 92 1016.0
20260510010339 58 292 0.0 0.0 0.00 0.00 0.00 92 1015.9
20260510010138 58 292 0.0 0.0 0.00 0.00 0.00 92 1015.8
20260510005937 58 292 2.0 2.0 0.00 0.00 0.00 92 1015.8
20260510005738 58 292 2.0 2.0 0.00 0.00 0.00 92 1015.9
20260510005338 58 315 2.0 2.0 0.00 0.00 0.00 92 1015.6
20260510005137 58 315 0.0 0.0 0.00 0.00 0.00 92 1015.5
20260510004938 58 315 0.0 0.0 0.00 0.00 0.00 92 1015.7
20260510004738 58 315 0.0 0.0 0.00 0.00 0.00 92 1015.7
20260510004338 58 315 0.0 0.0 0.00 0.00 0.00 92 1015.7
20260510004138 58 315 1.0 2.0 0.00 0.00 0.00 92 1015.5
20260510003737 58 315 0.0 0.0 0.00 0.00 0.00 92 1015.6
20260510003543 58 315 2.0 2.0 0.00 0.00 0.00 92 1015.7
20260510003337 58 315 1.0 2.0 0.00 0.00 0.00 92 1015.7
20260510003139 58 315 0.0 0.0 0.00 0.00 0.00 92 1015.8
20260510002938 58 315 1.0 2.0 0.00 0.00 0.00 92 1016.0
20260510002738 58 315 0.0 0.0 0.00 0.00 0.00 92 1016.0
20260510002337 58 315 1.0 2.0 0.00 0.00 0.00 92 1016.0
20260510002138 58 315 0.0 2.0 0.00 0.00 0.00 92 1016.0
20260510001337 58 315 2.0 2.0 0.00 0.00 0.00 91 1016.0
20260510001139 58 292 1.0 2.0 0.00 0.00 0.00 91 1016.1
20260510000937 58 315 0.0 2.0 0.00 0.00 0.00 91 1016.0
20260510000738 59 315 0.0 2.0 0.00 0.00 0.00 91 1015.6
20260510000542 59 292 2.0 2.0 0.00 0.00 0.00 91 1015.8
20260510000140 59 292 2.0 2.0 0.00 0.00 0.00 91 1015.8
20260509235938 59 315 0.0 2.0 0.00 0.00 0.00 91 1015.8
20260509235738 59 315 1.0 2.0 0.00 0.00 0.00 91 1015.8
20260509235544 59 338 0.0 0.0 0.00 0.00 0.00 91 1015.6
20260509234937 59 338 0.0 0.0 0.00 0.00 0.00 91 1015.4
20260509234738 59 338 0.0 2.0 0.00 0.00 0.00 91 1015.8
20260509234545 59 315 2.0 2.0 0.00 0.00 0.00 91 1015.9
20260509234339 59 315 2.0 2.0 0.00 0.00 0.00 91 1015.8
20260509234139 59 315 0.0 0.0 0.00 0.00 0.00 91 1015.8
20260509233938 59 315 0.0 2.0 0.00 0.00 0.00 91 1016.0
20260509233738 59 338 0.0 0.0 0.00 0.00 0.00 91 1015.9
20260509233542 59 315 0.0 0.0 0.00 0.00 0.00 91 1016.0
20260509233337 59 315 0.0 2.0 0.00 0.00 0.00 91 1016.1
20260509233144 59 315 1.0 2.0 0.00 0.00 0.00 91 1016.0
20260509232738 59 315 1.0 2.0 0.00 0.00 0.00 90 1015.9
20260509232547 59 315 1.0 2.0 0.00 0.00 0.00 90 1016.0
20260509232338 59 315 0.0 2.0 0.00 0.00 0.00 90 1016.1
20260509232138 59 338 0.0 0.0 0.00 0.00 0.00 90 1016.1
20260509231938 59 338 0.0 0.0 0.00 0.00 0.00 90 1016.2
20260509231739 60 338 0.0 2.0 0.00 0.00 0.00 90 1016.3
20260509231337 60 315 0.0 0.0 0.00 0.00 0.00 90 1016.3
20260509231138 60 315 0.0 2.0 0.00 0.00 0.00 90 1016.3
20260509230938 60 315 0.0 0.0 0.00 0.00 0.00 90 1016.3
20260509230736 59 0 0.0 0.0 0.00 0.00 0.00 90 1016.5
20260509230543 59 315 0.0 0.0 0.00 0.00 0.00 90 1016.5
20260509230338 60 315 0.0 0.0 0.00 0.00 0.00 90 1016.5
20260509230138 60 292 0.0 0.0 0.00 0.00 0.00 90 1016.6
20260509225937 60 292 0.0 0.0 0.00 0.00 0.00 90 1016.6
20260509225739 60 315 0.0 0.0 0.00 0.00 0.00 90 1016.7
20260509225544 60 315 1.0 2.0 0.00 0.00 0.00 90 1016.7
20260509225338 60 338 1.0 2.0 0.00 0.00 0.00 90 1016.7
20260509225138 60 315 1.0 2.0 0.00 0.00 0.00 90 1016.7
20260509224939 60 315 0.0 2.0 0.00 0.00 0.00 90 1016.6